Location: Julian California
(33.0790°N, 116.6010°W)
Time: 02:28:21
(UTC-07:00)

H-2A R/B - Pass Details

Date: 19 May 2017
Orbit: 735 x 836 km, 98.4° (Epoch: 16 October)

Event Time Altitude Azimuth Distance (km) Brightness Sun altitude
Exits shadow 22:38:00 63° 313° (NW) 821 2.2 -29.1°
Drops below altitude 10° 22:42:15 10° 343° (NNW) 2,255 5.3 -29.6°
Sets 22:44:34 0° 346° (NNW) 3,192 6.3 -29.8°
